Regional Weather Roundup
Issued by NWS

Current Version | Previous Version | Text Only | Print | Product List | Glossary On
Versions: 1 2 3 4 5 6 7 8 9 10 11 12 13 14 15 16 17 18 19 20 21 22 23 24 25 26 27 28 29 30 31 32 33 34 35 36 37 38 39 40 41 42 43 44 45 46 47 48 49 50
333
ASCA42 TJSJ 221510
RWRPR
PUERTO RICO/U.S. VIRGIN ISLANDS HOURLY WEATHER ROUNDUP
NATIONAL WEATHER SERVICE SAN JUAN PR
1100 AM AST WED FEB 22 2017

PRZ001>002-007>008-010-221600-
PUERTO RICO

CITY           SKY/WX    TMP DP  RH WIND       PRES   REMARKS
SAN JUAN LMM   PTSUNNY   82  68  61 VRB7      29.92S
AGUADILLA      MOSUNNY   81  64  57 E9        29.93F
CEIBA          CLOUDY    81  68  65 N8        29.93S
$$

VIZ001>002-221600-
U.S. VIRGIN ISLANDS

CITY           SKY/WX    TMP DP  RH WIND       PRES   REMARKS
CHARLOTTE AMA  CLOUDY    81  68  65 NE7       29.89S
CHRISTIANSTED  PTSUNNY   81  64  57 N8        29.91R
$$

HOURLY WEATHER ROUNDUP FOR THE NEWS MEDIA

CITY           SKY/WX    TMP DP  RH WIND       PRES   REMARKS
ORLANDO        CLOUDY    69  65  86 E10       29.81F
NEW YORK       CLOUDY    45  39  79 S6        30.05F
NEWARK         CLOUDY    47  37  68 SW7       30.04S
CHICAGO        CLOUDY    54  52  93 SW9       29.78F FOG
HARTFORD       CLOUDY    47  36  65 SW9       30.01F
BOSTON         CLOUDY    45  35  68 W6        30.00F
DALLAS         MOSUNNY   58  45  62 CALM      29.91S
PHILADELPHIA   CLOUDY    45  38  76 W7        30.05S
LOS ANGELES    PTCLDY    53  51  93 N3        30.13F
WASHINGTON DC  CLOUDY    51  40  65 SW3       30.02F



USA.gov is the U.S. government's official web portal to all federal, state and local government web resources and services.